This is the latest recevied weather packets stored in our database for station/object KD4UFD. If no packets are shown the sender has not sent any weather packets the latest 10 day(s).
| Time | Temp. | Humidity | Pressure | Rain* | Wind** | Luminosity | Snow |
|---|---|---|---|---|---|---|---|
| 1778127456 | 15° C | 99% | 1012.1 hPa | 0 mm | - | 0 W/m² | - |
| 1778127152 | 15.56° C | 99% | 1012 hPa | 0 mm | - | 0 W/m² | - |
| 1778126850 | 15.56° C | 99% | 1012.2 hPa | 0 mm | - | 0 W/m² | - |
| 1778126545 | 15.56° C | 99% | 1012.3 hPa | 0 mm | - | 0 W/m² | - |
| 1778126242 | 15.56° C | 99% | 1012.2 hPa | 0 mm | - | 0 W/m² | - |
| 1778125937 | 15.56° C | 99% | 1012 hPa | 0 mm | - | 0 W/m² | - |
| 1778125635 | 15.56° C | 99% | 1012.4 hPa | 0 mm | - | 0 W/m² | - |
| 1778125332 | 15.56° C | 99% | 1012.1 hPa | 0 mm | - | 0 W/m² | - |
| 1778125030 | 15.56° C | 99% | 1012.2 hPa | 0 mm | - | 0 W/m² | - |
| 1778124727 | 15.56° C | 99% | 1012.7 hPa | 0 mm | - | 0 W/m² | - |
| 1778124425 | 16.11° C | 99% | 1012.3 hPa | 1.27 mm | - | 0 W/m² | - |
| 1778124120 | 16.11° C | 99% | 1012.7 hPa | 1.27 mm | - | 0 W/m² | - |
| 1778123817 | 16.11° C | 99% | 1012.6 hPa | 0 mm | - | 0 W/m² | - |
| 1778123514 | 16.11° C | 99% | 1012.7 hPa | 0 mm | - | 0 W/m² | - |
| 1778123210 | 16.11° C | 99% | 1012.7 hPa | 1.78 mm | - | 0 W/m² | - |
| 1778122909 | 16.11° C | 99% | 1012.9 hPa | 1.78 mm | - | 0 W/m² | - |
| 1778122605 | 16.11° C | 99% | 1013.1 hPa | 1.78 mm | - | 0 W/m² | - |
| 1778122302 | 16.11° C | 99% | 1013 hPa | 0 mm | - | 0 W/m² | - |
| 1778122000 | 16.11° C | 99% | 1012.3 hPa | 1.27 mm | - | 0 W/m² | - |
| 1778121697 | 16.11° C | 99% | 1012.3 hPa | 1.27 mm | - | 0 W/m² | - |
| 1778121392 | 16.11° C | 99% | 1012.6 hPa | 3.05 mm | - | 0 W/m² | - |
| 1778121090 | 16.11° C | 99% | 1013.1 hPa | 1.78 mm | - | 0 W/m² | - |
| 1778120787 | 16.11° C | 99% | 1012.5 hPa | 0 mm | - | 0 W/m² | - |
| 1778120482 | 16.11° C | 99% | 1012.3 hPa | 0 mm | - | 0 W/m² | - |
| 1778120179 | 16.11° C | 99% | 1012.3 hPa | 0 mm | - | 0 W/m² | - |
* Rain latest hour (hover to see other rain measurements)
** Current wind speed in m/s (hover to see current wind gust speed)